STARLINK-35883 (66892 NORAD) Tracking and Keplerian Element Data

This shows tracking and keplerian element data for the satellite.

Feedback or suggestion? Click here.




ElementValue
Catalog66892
NameSTARLINK-35883
Epoch Orbit357
Epoch Day354.25003472
Epoch Year2025
RAAN36.0884
Inclination53.1575
Eccentricity0.0001124
Argument of Perigee73.7957
Mean Anonmoly177.097
Mean Motion15.74222605
Decay Rate-0.0007759
L11 66892U 25283Q 25354.25003472 -.00077590 00000+0 -52959-3 0 9995
L22 66892 53.1575 36.0884 0001124 73.7957 177.0970 15.74222605 3574



Live tracking and technical data element details for STARLINK-35883 (NORAD 66892). STARLINK-35883 can be tracked NOW for your location showing map with azimuth and elevation plus other details from your city location.







IsCatalogInMostPopularTable: catalog: 66892, numindb: 9
Update: records affected: 1



GetName: 66892 STARLINK-35883

Hit Count: updated at: Mon, 09 Feb 2026 07:27:04 GMT